Gogerbank, United Kingdom

6:44 PM GMT on February 26, 2017 (GMT +0000)
Edinburgh Airport

Weather History for EGPH - January, 2013

Change the Weather History Date:

Tuesday, January 8, 2013

  Actual Average Record
Temperature  
Mean Temperature 47 °F -  
Max Temperature 53 °F 43 °F 53 °F (2013)
Min Temperature 41 °F 33 °F 26 °F (2006)
Degree Days  
Heating Degree Days 18    
Moisture  
Dew Point 45 °F    
Average Humidity 90    
Maximum Humidity 100    
Minimum Humidity 81    
Precipitation  
Precipitation 0.00 in 0.07 in - ()
Sea Level Pressure  
Sea Level Pressure 30.05 in    
Wind  
Wind Speed 8 mph ()    
Max Wind Speed 20 mph    
Max Gust Speed -    
Visibility 6.1 miles    
Events Rain    
Averages and records for this station are not official NWS values.
T = Trace of Precipitation, MM = Missing Value Source: Averaged Metar Reports

Daily Weather History Graph

Daily Weather History Graph

Search for Another Location

Airport or City:

Trip Planner

Search our weather history database for the weather conditions in past years. The results will help you decide how hot, cold, wet, or windy it might be!

Date:

Astronomy

Jan. 08, 2013 Rise Set
Actual Time 8:40 AM GMT 4:00 PM GMT
Civil Twilight 7:54 AM GMT 4:45 PM GMT
Nautical Twilight 7:06 AM GMT 5:33 PM GMT
Astronomical Twilight 6:21 AM GMT 6:18 PM GMT
Moon 4:51 AM GMT (1/8) 12:52 PM GMT (1/8)
Length of Visible Light 8h 50m
Length of Day
7h 19m
Waning Crescent, 15% of the Moon is Illuminated
Jan 8
Waning Crescent
Jan 11
New
Jan 18
First Quarter
Jan 27
Full
Feb 3
Last Quarter

Hourly Weather History & Observations

Time (GMT) Temp. Windchill Dew Point Humidity Pressure Visibility Wind Dir Wind Speed Gust Speed Precip Events Conditions
12:20 AM 48.2 °F - 48.2 °F 100% 30.04 in 4.3 mi ENE 3.5 mph - N/A Rain Light Rain
12:50 AM 48.2 °F - 48.2 °F 100% 30.04 in 5.6 mi ENE 3.5 mph - N/A Rain Light Rain
1:20 AM 48.2 °F - 48.2 °F 100% 30.01 in 6.2 mi Calm Calm - N/A Rain Light Rain
1:50 AM 50.0 °F - 48.2 °F 94% 30.01 in 6.2 mi SW 4.6 mph - N/A Rain Light Rain
2:20 AM 50.0 °F - 48.2 °F 94% 30.01 in 6.2 mi SSW 4.6 mph - N/A Rain Light Rain
2:50 AM 50.0 °F - 48.2 °F 94% 30.01 in 5.6 mi Variable 2.3 mph - N/A Rain Light Rain
3:20 AM 48.2 °F - 48.2 °F 100% 30.01 in 6.2 mi Variable 2.3 mph - N/A   Overcast
3:50 AM 48.2 °F - 48.2 °F 100% 29.98 in 6.2 mi Calm Calm - N/A   Overcast
4:20 AM 48.2 °F - 48.2 °F 100% 29.98 in 6.2 mi NE 4.6 mph - N/A   Mostly Cloudy
4:50 AM 48.2 °F - 48.2 °F 100% 29.98 in 6.2 mi Variable 5.8 mph - N/A   Mostly Cloudy
5:20 AM 51.8 °F - 48.2 °F 88% 29.98 in 6.2 mi SW 4.6 mph - N/A Rain Light Rain
5:50 AM 51.8 °F - 48.2 °F 88% 29.95 in 6.2 mi SW 4.6 mph - N/A Rain Light Rain
6:20 AM 51.8 °F - 48.2 °F 88% 29.98 in 6.2 mi WSW 10.4 mph - N/A Rain Light Rain
6:50 AM 51.8 °F - 48.2 °F 88% 29.95 in 6.2 mi SW 13.8 mph - N/A Rain Light Rain
7:20 AM 51.8 °F - 48.2 °F 88% 29.95 in 6.2 mi SW 13.8 mph - N/A   Partly Cloudy
7:50 AM 51.8 °F - 48.2 °F 88% 29.98 in 6.2 mi SW 15.0 mph - N/A   Scattered Clouds
8:20 AM 51.8 °F - 48.2 °F 88% 29.98 in 6.2 mi SW 15.0 mph - N/A   Overcast
8:50 AM 51.8 °F - 50.0 °F 94% 29.98 in 6.2 mi SW 15.0 mph - N/A   Mostly Cloudy
9:20 AM 51.8 °F - 50.0 °F 94% 29.98 in 6.2 mi SW 19.6 mph - N/A   Mostly Cloudy
9:50 AM 51.8 °F - 50.0 °F 94% 29.98 in 6.2 mi SW 18.4 mph - N/A   Overcast
10:20 AM 51.8 °F - 50.0 °F 94% 29.98 in 6.2 mi SW 18.4 mph - N/A   Mostly Cloudy
10:50 AM 53.6 °F - 50.0 °F 88% 30.01 in 6.2 mi WSW 17.3 mph - N/A   Mostly Cloudy
11:20 AM 51.8 °F - 48.2 °F 88% 30.01 in 6.2 mi WSW 19.6 mph - N/A Rain Light Rain
11:50 AM 50.0 °F - 46.4 °F 87% 30.04 in 6.2 mi West 17.3 mph - N/A   Mostly Cloudy
12:20 PM 50.0 °F - 44.6 °F 82% 30.04 in 6.2 mi West 15.0 mph - N/A   Scattered Clouds
12:50 PM 50.0 °F - 44.6 °F 82% 30.04 in 6.2 mi West 16.1 mph - N/A   Scattered Clouds
1:20 PM 50.0 °F - 44.6 °F 82% 30.04 in 6.2 mi WSW 17.3 mph - N/A   Scattered Clouds
1:50 PM 48.2 °F - 44.6 °F 87% 30.06 in 6.2 mi WSW 13.8 mph - N/A   Scattered Clouds
2:20 PM 48.2 °F - 44.6 °F 87% 30.06 in 6.2 mi WSW 10.4 mph - N/A   Scattered Clouds
2:50 PM 48.2 °F - 44.6 °F 87% 30.06 in 6.2 mi WSW 13.8 mph - N/A   Scattered Clouds
3:20 PM 48.2 °F - 42.8 °F 82% 30.06 in 6.2 mi WSW 11.5 mph - N/A   Scattered Clouds
3:50 PM 46.4 °F 41.5 °F 42.8 °F 87% 30.09 in 6.2 mi WSW 10.4 mph - N/A   Partly Cloudy
4:20 PM 44.6 °F 39.2 °F 41.0 °F 87% 30.09 in 6.2 mi WSW 10.4 mph - N/A   Partly Cloudy
4:50 PM 44.6 °F 38.4 °F 41.0 °F 87% 30.09 in 6.2 mi WSW 12.7 mph - N/A   Partly Cloudy
5:20 PM 44.6 °F 39.7 °F 39.2 °F 81% 30.09 in 6.2 mi SW 9.2 mph - N/A   Partly Cloudy
5:50 PM 42.8 °F 37.5 °F 39.2 °F 87% 30.09 in - WSW 9.2 mph - N/A   Clear
6:20 PM 41.0 °F 34.7 °F 39.2 °F 93% 30.12 in - WSW 10.4 mph - N/A   Clear
6:50 PM 42.8 °F 36.6 °F 39.2 °F 87% 30.12 in - WSW 11.5 mph - N/A   Clear
7:20 PM 42.8 °F 36.6 °F 39.2 °F 87% 30.12 in 6.2 mi SW 11.5 mph - N/A   Partly Cloudy
7:50 PM 44.6 °F 38.4 °F 39.2 °F 81% 30.12 in 6.2 mi WSW 12.7 mph - N/A   Scattered Clouds
8:20 PM 42.8 °F 38.0 °F 39.2 °F 87% 30.12 in 6.2 mi WSW 8.1 mph - N/A   Scattered Clouds
8:50 PM 42.8 °F 36.6 °F 41.0 °F 93% 30.12 in 6.2 mi WSW 11.5 mph - N/A Rain Light Rain
9:20 PM 42.8 °F 36.6 °F 39.2 °F 87% 30.12 in 6.2 mi WSW 11.5 mph - N/A   Scattered Clouds
9:50 PM 42.8 °F 38.0 °F 39.2 °F 87% 30.15 in 6.2 mi WSW 8.1 mph - N/A   Scattered Clouds
10:20 PM 42.8 °F 37.5 °F 39.2 °F 87% 30.15 in 6.2 mi WSW 9.2 mph - N/A   Scattered Clouds
10:50 PM 41.0 °F 34.3 °F 39.2 °F 93% 30.15 in 6.2 mi WSW 11.5 mph - N/A   Partly Cloudy
11:20 PM 41.0 °F 34.7 °F 39.2 °F 93% 30.15 in 6.2 mi WSW 10.4 mph - N/A   Partly Cloudy
11:50 PM 41.0 °F 34.7 °F 39.2 °F 93% 30.15 in 6.2 mi WSW 10.4 mph - N/A   Partly Cloudy